When you browse on this site, cookies collect data to enhance your experience and personalize the content and advertising you see.
Visit our Privacy Policy to learn more. By continuing to use the site, you agree to this use of cookies and data.
  • In Romania
  • List of Countries
  • For 7 days
  • Water Temperature
  • Weather Map
  • Weather Widgets
  • user-avatar
    Login

    Hourly Weather Truto

    Today, 8 December, Sunday

    Time Temperature Precipitation Wind Pressure Humidity
    00:00 +12°C° 0 mm 13 mps 751 mmHg 94%
    01:00 +10°C° 0.4 mm 13 mps 751 mmHg 90%
    02:00 +10°C° 0.4 mm 12 mps 751 mmHg 87%
    03:00 +9°C° 0.4 mm 11 mps 751 mmHg 83%
    04:00 +9°C° 0 mm 12 mps 751 mmHg 80%
    05:00 +8°C° 0 mm 12 mps 752 mmHg 77%
    06:00 +7°C° 0 mm 12 mps 752 mmHg 74%
    07:00 +7°C° 0 mm 12 mps 752 mmHg 73%
    08:00 +7°C° 0 mm 12 mps 752 mmHg 72%
    09:00 +7°C° 0 mm 12 mps 752 mmHg 71%
    10:00 +7°C° 0.4 mm 13 mps 752 mmHg 72%
    11:00 +7°C° 0.4 mm 13 mps 752 mmHg 72%
    12:00 +6°C° 0.4 mm 14 mps 752 mmHg 73%
    13:00 +6°C° 0.6 mm 14 mps 751 mmHg 71%
    14:00 +6°C° 0.6 mm 15 mps 751 mmHg 69%
    15:00 +6°C° 0.6 mm 15 mps 750 mmHg 67%
    16:00 +6°C° 0.3 mm 16 mps 750 mmHg 71%
    17:00 +5°C° 0.3 mm 17 mps 749 mmHg 74%
    18:00 +5°C° 0.3 mm 17 mps 749 mmHg 78%
    19:00 +6°C° 0.5 mm 18 mps 748 mmHg 74%
    20:00 +6°C° 0.5 mm 19 mps 747 mmHg 71%
    21:00 +7°C° 0.5 mm 20 mps 747 mmHg 68%
    22:00 +7°C° 0.2 mm 20 mps 748 mmHg 68%
    23:00 +7°C° 0.2 mm 19 mps 748 mmHg 68%

    Tomorrow, 9 December, Monday

    Time Temperature Precipitation Wind Pressure Humidity
    00:00 +7°C° 0.2 mm 19 mps 749 mmHg 68%
    01:00 +7°C° 0.1 mm 18 mps 750 mmHg 68%
    02:00 +7°C° 0.1 mm 18 mps 751 mmHg 69%
    03:00 +7°C° 0.1 mm 17 mps 753 mmHg 69%
    04:00 +7°C° 0.1 mm 17 mps 754 mmHg 68%
    05:00 +7°C° 0.1 mm 16 mps 756 mmHg 68%
    06:00 +8°C° 0.1 mm 15 mps 757 mmHg 68%
    07:00 +6°C° 0.1 mm 14 mps 758 mmHg 68%
    08:00 +7°C° 0.1 mm 13 mps 759 mmHg 68%
    09:00 +7°C° 0.1 mm 11 mps 761 mmHg 68%
    10:00 +7°C° 0 mm 11 mps 762 mmHg 67%
    11:00 +8°C° 0 mm 10 mps 763 mmHg 67%
    12:00 +8°C° 0 mm 10 mps 764 mmHg 67%
    13:00 +7°C° 0 mm 9 mps 764 mmHg 69%
    14:00 +7°C° 0 mm 8 mps 764 mmHg 72%
    15:00 +8°C° 0 mm 6 mps 764 mmHg 74%
    16:00 +7°C° 0 mm 6 mps 765 mmHg 77%
    17:00 +7°C° 0 mm 5 mps 765 mmHg 79%
    18:00 +6°C° 0 mm 4 mps 766 mmHg 82%
    19:00 +6°C° 0 mm 4 mps 766 mmHg 83%
    20:00 +6°C° 0 mm 4 mps 766 mmHg 83%
    21:00 +7°C° 0 mm 3 mps 766 mmHg 83%
    22:00 +6°C° 0 mm 4 mps 765 mmHg 84%
    23:00 +6°C° 0 mm 5 mps 765 mmHg 86%

    Day after tomorrow, 10 December, Tuesday

    Time Temperature Precipitation Wind Pressure Humidity
    00:00 +5°C° 0 mm 6 mps 765 mmHg 87%
    01:00 +6°C° 0 mm 8 mps 764 mmHg 85%
    02:00 +7°C° 0 mm 9 mps 763 mmHg 84%
    03:00 +8°C° 0 mm 10 mps 762 mmHg 83%
    04:00 +8°C° 0.2 mm 11 mps 761 mmHg 84%
    05:00 +8°C° 0.2 mm 12 mps 760 mmHg 86%
    06:00 +8°C° 0.2 mm 13 mps 758 mmHg 87%
    07:00 +9°C° 2 mm 13 mps 758 mmHg 89%
    08:00 +9°C° 2 mm 14 mps 757 mmHg 91%
    09:00 +9°C° 2 mm 15 mps 756 mmHg 93%
    10:00 +10°C° 0.6 mm 15 mps 755 mmHg 92%
    11:00 +10°C° 0.6 mm 15 mps 754 mmHg 92%
    12:00 +11°C° 0.6 mm 15 mps 753 mmHg 91%
    13:00 +10°C° 1.1 mm 15 mps 753 mmHg 91%
    14:00 +9°C° 1.1 mm 14 mps 752 mmHg 90%
    15:00 +8°C° 1.1 mm 14 mps 752 mmHg 89%
    16:00 +7°C° 0.3 mm 13 mps 753 mmHg 83%
    17:00 +7°C° 0.3 mm 12 mps 754 mmHg 76%
    18:00 +7°C° 0.3 mm 11 mps 754 mmHg 70%
    19:00 +6°C° 0 mm 10 mps 755 mmHg 70%
    20:00 +6°C° 0 mm 9 mps 756 mmHg 71%
    21:00 +6°C° 0 mm 8 mps 757 mmHg 71%
    22:00 +6°C° 0 mm 8 mps 757 mmHg 72%
    23:00 +5°C° 0 mm 8 mps 757 mmHg 73%

    11 December, Wednesday

    Time Temperature Precipitation Wind Pressure Humidity
    00:00 +5°C° 0 mm 7 mps 757 mmHg 74%
    01:00 +5°C° 0.1 mm 8 mps 756 mmHg 74%
    02:00 +5°C° 0.1 mm 8 mps 756 mmHg 74%
    03:00 +5°C° 0.1 mm 9 mps 756 mmHg 74%
    04:00 +5°C° 0.2 mm 9 mps 755 mmHg 73%
    05:00 +5°C° 0.2 mm 10 mps 754 mmHg 73%
    06:00 +5°C° 0.2 mm 10 mps 753 mmHg 73%
    07:00 +4°C° 0.5 mm 11 mps 753 mmHg 75%
    08:00 +4°C° 0.5 mm 12 mps 752 mmHg 76%
    09:00 +3°C° 0.5 mm 13 mps 752 mmHg 78%
    10:00 +3°C° 0.5 mm 13 mps 751 mmHg 78%
    11:00 +3°C° 0.5 mm 13 mps 751 mmHg 79%
    12:00 +3°C° 0.5 mm 14 mps 751 mmHg 79%
    13:00 +3°C° 0.5 mm 14 mps 751 mmHg 76%
    14:00 +3°C° 0.5 mm 13 mps 751 mmHg 72%
    15:00 +3°C° 0.5 mm 13 mps 751 mmHg 69%
    16:00 +3°C° 0.3 mm 13 mps 751 mmHg 68%
    17:00 +3°C° 0.3 mm 13 mps 752 mmHg 67%
    18:00 +3°C° 0.3 mm 12 mps 752 mmHg 65%
    19:00 +3°C° 0.1 mm 11 mps 753 mmHg 66%
    20:00 +3°C° 0.1 mm 11 mps 754 mmHg 67%
    21:00 +3°C° 0.1 mm 10 mps 754 mmHg 68%
    22:00 +3°C° 0.1 mm 10 mps 754 mmHg 70%
    23:00 +3°C° 0.1 mm 9 mps 754 mmHg 71%

    12 December, Thursday

    Time Temperature Precipitation Wind Pressure Humidity
    00:00 +3°C° 0.1 mm 9 mps 754 mmHg 73%
    01:00 +5°C° 0 mm 9 mps 753 mmHg 75%
    02:00 +5°C° 0 mm 10 mps 753 mmHg 77%
    03:00 +6°C° 0 mm 10 mps 752 mmHg 78%
    04:00 +6°C° 0.2 mm 11 mps 751 mmHg 79%
    05:00 +7°C° 0.2 mm 12 mps 750 mmHg 80%
    06:00 +7°C° 0.2 mm 12 mps 748 mmHg 81%
    07:00 +6°C° 1.1 mm 14 mps 747 mmHg 84%
    08:00 +8°C° 1.1 mm 15 mps 745 mmHg 86%
    09:00 +7°C° 1.1 mm 17 mps 743 mmHg 89%
    10:00 +7°C° 1.7 mm 16 mps 742 mmHg 88%
    11:00 +9°C° 1.7 mm 15 mps 741 mmHg 86%
    12:00 +10°C° 1.7 mm 14 mps 740 mmHg 85%
    13:00 +10°C° 0.3 mm 14 mps 739 mmHg 86%
    14:00 +10°C° 0.3 mm 15 mps 739 mmHg 87%
    15:00 +10°C° 0.3 mm 15 mps 738 mmHg 88%
    16:00 +10°C° 1.3 mm 15 mps 737 mmHg 89%
    17:00 +10°C° 1.3 mm 15 mps 736 mmHg 90%
    18:00 +10°C° 1.3 mm 15 mps 735 mmHg 90%
    19:00 +9°C° 1.5 mm 16 mps 735 mmHg 85%
    20:00 +9°C° 1.5 mm 16 mps 735 mmHg 80%
    21:00 +7°C° 1.5 mm 16 mps 736 mmHg 75%
    22:00 +7°C° 0.2 mm 17 mps 736 mmHg 72%
    23:00 +6°C° 0.2 mm 17 mps 737 mmHg 70%

    13 December, Friday

    Time Temperature Precipitation Wind Pressure Humidity
    00:00 +5°C° 0.2 mm 18 mps 737 mmHg 68%
    01:00 +5°C° 0.2 mm 18 mps 737 mmHg 68%
    02:00 +5°C° 0.2 mm 18 mps 738 mmHg 68%
    03:00 +3°C° 0.2 mm 18 mps 738 mmHg 68%
    04:00 +5°C° 0.2 mm 18 mps 739 mmHg 67%
    05:00 +5°C° 0.2 mm 17 mps 739 mmHg 66%
    06:00 +5°C° 0.2 mm 17 mps 740 mmHg 65%
    07:00 +5°C° 0.1 mm 16 mps 741 mmHg 66%
    08:00 +5°C° 0.1 mm 16 mps 742 mmHg 67%
    09:00 +5°C° 0.1 mm 15 mps 743 mmHg 68%
    10:00 +5°C° 0.1 mm 15 mps 743 mmHg 68%
    11:00 +5°C° 0.1 mm 15 mps 743 mmHg 68%
    12:00 +5°C° 0.1 mm 15 mps 744 mmHg 68%
    13:00 +6°C° 0.1 mm 14 mps 743 mmHg 68%
    14:00 +7°C° 0.1 mm 13 mps 743 mmHg 68%
    15:00 +7°C° 0.1 mm 12 mps 743 mmHg 69%
    16:00 +7°C° 0.2 mm 10 mps 743 mmHg 74%
    17:00 +7°C° 0.2 mm 9 mps 742 mmHg 80%
    18:00 +8°C° 0.2 mm 7 mps 742 mmHg 86%
    19:00 +7°C° 0.6 mm 9 mps 741 mmHg 87%
    20:00 +8°C° 0.6 mm 10 mps 741 mmHg 89%
    21:00 +9°C° 0.6 mm 11 mps 740 mmHg 91%
    22:00 +9°C° 0.2 mm 12 mps 740 mmHg 86%
    23:00 +9°C° 0.2 mm 13 mps 741 mmHg 82%
    Show more